Preview of NWS' New Version of Forecast
This preview is not operational and should not be used for support decisions.

Regional Weather Roundup (RWR)

Issued by National Weather Service (NWS)

                            
000
ASUS42 KTBW 200318
RWRFL 
FLORIDA REGIONAL WEATHER ROUNDUP
NATIONAL WEATHER SERVICE TAMPA BAY RUSKIN FL
1100 PM EDT MON AUG 19 2019

NOTE: "FAIR" INDICATES FEW OR NO CLOUDS BELOW 12,000 FEET WITH NO
SIGNIFICANT WEATHER AND/OR OBSTRUCTIONS TO VISIBILITY.

FLZ001>010-012>015-112-114-115-200400-
PANHANDLE FLORIDA
  
CITY           SKY/WX    TMP DP  RH WIND       PRES   REMARKS
PENSACOLA      CLOUDY    81  78  91 SW12G20   30.02R                  
PENSACOLA NAS  CLOUDY    78  73  84 SW13      30.01S                  
MILTON NAS     CLOUDY    75  75 100 CALM      30.06R                  
CRESTVIEW      FAIR      76  74  93 CALM      30.07R                  
DUKE FIELD     FAIR      76  76 100 CALM      30.05R                  
VALPARAISO     MOCLDY    80  74  81 NW3       30.05R                  
MARY ESTHER    CLOUDY    79  73  84 CALM      30.03R                  
TRI COUNTY     CLOUDY    76  74  93 SE3       30.08R                  
PANAMA CITY    FAIR      77  74  90 CALM      30.06R                  
TYNDALL AFB    MOCLDY    81  74  78 W8        30.07R                  
APALACHICOLA   FAIR      79  73  82 CALM      30.08R                  

STATION/POSITION SKY/WX   TEMP    WIND        PRES    WAVE   SWELL
                          AIR SEA DIR/SP/G            HT/PER HT/PER
                          (F)     (DEG/KT/KT) (MB)    (FT/S) (FT/S)
30.1N   87.6W              79 86  220/ 16/ 19 1016.2F   4/ 6
29.2N   88.2W              81 84  260/ 10/ 12 1018.3F   2/ 6   2/ 6
28.8N   86.0W                 84  270/  8/ 10 1018.9R   2/ 6   2/ 6
PANAMA CITY BEAC           82 86  260/ 14/ 17 1018.2
TOWER C                    80     270/  9/ 11 1019.3R
28.5N   84.5W              82     330/  6/  8 1020.2R   2/ 5   2/ 5

$$
FLZ011-016>038-118-127-128-134-139-239-200400-
NORTH FLORIDA
  
CITY           SKY/WX    TMP DP  RH WIND       PRES   REMARKS
MARIANNA       FAIR      78  76  93 S3        30.07R                  
TALLAHASSEE    CLOUDY    77  76  96 SW5       30.09R                  
PERRY          LGT RAIN  77  76  97 CALM      30.12R                  
CROSS CITY     FAIR      76  75  98 CALM      30.13R                  
LAKE CITY      FAIR      72  72 100 CALM      30.13R                  
GAINESVILLE    FAIR      75  74  96 CALM      30.14R                  
WILLISTON      FAIR      77  76  97 E3        30.13R                  
MAYPORT NAS    CLOUDY    82  77  84 S7        30.12R                  
JACKSONVILLE   MOCLDY    78  76  93 CALM      30.12R                  
JAX NAS        MOCLDY    84  73  69 E6        30.13R THUNDER          
JAX CECIL      PTCLDY    77  75  94 CALM      30.12R                  
FERNANDINA BEA CLOUDY    79  76  91 CALM      30.12S                  
ST AUGUSTINE   FAIR      80  76  87 S3        30.13R                  

STATION/POSITION SKY/WX   TEMP    WIND        PRES    WAVE   SWELL
                          AIR SEA DIR/SP/G            HT/PER HT/PER
                          (F)     (DEG/KT/KT) (MB)    (FT/S) (FT/S)
SHELL POINT      NOT AVBL
KEATON BEACH               78      60/  3/  3 1019.9R
CEDAR KEY                  79      10/  4/  5 1019.3R
FERNANDINA                                    1020.6R
30.7N   81.3W                 82                N/A     2/ 7
MAYPORT                           140/  4/  6 1020.3R
31.4N   80.9W              82 82  230/  6/  6 1019.7R   1/ 8   2/ 8
ST AUGUSTINE               81 82  190/  4/  5 1020.2R

$$
FLZ040-043>046-052-053-057-058-063-144-200400-
INTERIOR CENTRAL FLORIDA
  
CITY           SKY/WX    TMP DP  RH WIND       PRES   REMARKS
OCALA          FAIR      79  76  90 NE3       30.13R                  
LEESBURG       FAIR      79  74  84 CALM      30.13R                  
SANFORD        FAIR      81  77  88 E3        30.12R                  
ORLANDO EXEC   FAIR      80  75  84 CALM      30.12R                  
ORLANDO INTL   MOCLDY    81  75  82 E5        30.12R                  
KISSIMMEE      FAIR      82  75  79 CALM      30.13R                  
WINTER HAVEN   FAIR      80  74  81 E5        30.12R                  
LAKELAND       FAIR      79  72  78 CALM      30.11S                  
SEBRING        FAIR      78  75  89 NE3       30.11R                  
OKEECHOBEE     FAIR      75  72  88 CALM      30.08S                  

$$
FLZ041-047-054-059-064-141-147-200400-
EAST CENTRAL FLORIDA
  
CITY           SKY/WX    TMP DP  RH WIND       PRES   REMARKS
DAYTONA BEACH  MOCLDY    80  79  96 CALM      30.12R                  
DELAND         FAIR      79  75  89 E6        30.12R                  
JFK SPACE CTR  FAIR     N/A N/A N/A SE5         N/A                   
CAPE CANAVERAL FAIR      79  78  99 CALM      30.10R                  
PATRICK AFB    FAIR      83  80  90 SE9       30.10R HX  95           
MELBOURNE      FAIR      85  75  72 SE8       30.10R                  
VERO BEACH     FAIR      80  73  79 SE6       30.10R                  
FT PIERCE      FAIR      81  73  76 CALM      30.09R                  

STATION/POSITION SKY/WX   TEMP    WIND        PRES    WAVE   SWELL
                          AIR SEA DIR/SP/G            HT/PER HT/PER
                          (F)     (DEG/KT/KT) (MB)    (FT/S) (FT/S)
28.5N   80.2W              85 85  120/ 16/ 17 1019.1R   2/ 3   2/ 8
28.9N   78.5W              85 86  120/ 10/ 12 1020.0R   3/ 7   2/ 7
TRIDENT PIER               80 80   80/  3/  6 1020.6R
28.4N   80.5W                 80                N/A     2/ 4
27.5N   80.2W                 83                N/A     3/ 4

$$
FLZ050-056-061-142-242-148-248-149-249-151-251-155-255-
160-260-200400-
WEST CENTRAL FLORIDA
  
CITY           SKY/WX    TMP DP  RH WIND       PRES   REMARKS
CRYSTAL RIVER  CLOUDY    79  73  83 CALM      30.11R                  
INVERNESS      CLOUDY    77  77 100 CALM      30.12R                  
BROOKSVILLE    FAIR      79  75  87 NE3       30.11R                  
CLEARWATER AIR FAIR      79  73  83 N3        30.09S                  
ST PETE CLEARW FAIR      82  73  74 E3        30.09R                  
TAMPA INTL     MOCLDY    82  72  71 E3        30.10R                  
PLANT CITY     FAIR      79  77  94 NE3       30.12S                  
MACDILL AFB    FAIR      78  73  83 NE5       30.09R                  
PETER O KNIGHT MOCLDY    81  75  83 NE5       30.10R                  
ST PETERSBURG  FAIR      84  73  69 NE8       30.08R                  
SARASOTA       FAIR      78  74  87 NE6       30.07R                  
VENICE         FAIR      81  75  83 E13       30.10R                  

STATION/POSITION SKY/WX   TEMP    WIND        PRES    WAVE   SWELL
                          AIR SEA DIR/SP/G            HT/PER HT/PER
                          (F)     (DEG/KT/KT) (MB)    (FT/S) (FT/S)
27.3N   84.2W                 85                N/A     2/ 7
CLEARWATER BEACH           84 87  100/  2/  3 1019.2
MIDDLE TAMPA BAY                   70/  5/  7 1019.1R
VENICE                     80 86  100/ 11/ 15 1019.3R

$$
FLZ066-069-070-075>078-162-262-165-265-200400-
SOUTHWEST FLORIDA AND KEYS
  
CITY           SKY/WX    TMP DP  RH WIND       PRES   REMARKS
PUNTA GORDA    FAIR      78  78 100 NE5       30.10R                  
FT MYERS       FAIR      80  72  76 CALM      30.07R                  
SOUTHWEST INTL FAIR      79  73  82 E6        30.07R                  
NAPLES         FAIR      80  75  84 E3        30.06R                  
IMMOKALEE      FAIR      75  73  94 CALM      30.06R                  
MARATHON       FAIR      82  73  74 E6        30.05R                  
KEY WEST NAS   FAIR      84  75  74 E14       30.04R                  
KEY WEST INTL  FAIR      84  74  71 E15G21    30.04R                  

STATION/POSITION SKY/WX   TEMP    WIND        PRES    WAVE   SWELL
                          AIR SEA DIR/SP/G            HT/PER HT/PER
                          (F)     (DEG/KT/KT) (MB)    (FT/S) (FT/S)
NAPLES                                        1018.1R
26.0N   85.6W              85 86   70/  8/ 10 1018.3R   3/ 7   3/ 7
DRY TORTUGAS               86     120/ 13/ 14 1017.3R
SAND KEY                   84     100/ 16/ 19 1015.8R
SOMBRERO KEY               83     100/ 12/ 16 1017.6R
LONG KEY                   83                 1016.6R

$$
FLZ067-068-071>074-168-172>174-200400-
SOUTHEAST FLORIDA 
  
CITY           SKY/WX    TMP DP  RH WIND       PRES   REMARKS
W PALM BEACH   LGT RAIN  81  74  79 SE16G26   30.09R                  
BOCA RATON     PTCLDY    82  73  74 S14       30.07R                  
FT LAUDER-EXEC FAIR      81  73  76 E12       30.07S                  
FT LAUDERDALE  FAIR      81  73  76 SE15      30.06S                  
POMPANO BEACH  FAIR      82  74  76 SE13      30.07S                  
PEMBROKE PINES FAIR      80  73  79 E6        30.08S                  
OPA LOCKA      FAIR      79  75  87 E5        30.07S                  
MIAMI          FAIR      81  74  79 E7        30.06S                  
WEST KENDALL   FAIR      82  75  79 E9        30.06R                  
HOMESTEAD      FAIR      82  74  77 E8        30.05S                  

STATION/POSITION SKY/WX   TEMP    WIND        PRES    WAVE   SWELL
                          AIR SEA DIR/SP/G            HT/PER HT/PER
                          (F)     (DEG/KT/KT) (MB)    (FT/S) (FT/S)
PORT EVERGLADES            82     130/  9/ 14 1018.3R
VIRGINIA KEY               82 89   80/ 11/ 14 1017.9
LAKE WORTH                        140/ 13/ 16   N/A
FOWEY ROCKS                81 87  100/ 15/ 16 1018.2R
SETTLEMENT POINT           81     200/  9/ 10 1019.1R

$$